When you browse on this site, cookies collect data to enhance your experience and personalize the content and advertising you see.
Visit our Privacy Policy to learn more. By continuing to use the site, you agree to this use of cookies and data.

Hourly Weather Morges

Today, 15 July, Wednesday

Time Temperature Precipitation Wind Pressure Humidity
00:00 +16°C° 0 mm 1 mps 724 mmHg 89%
01:00 +16°C° 0.4 mm 1 mps 723 mmHg 90%
02:00 +16°C° 0.4 mm 1 mps 723 mmHg 91%
03:00 +15°C° 0.4 mm 1 mps 723 mmHg 92%
04:00 +16°C° 0.5 mm 1 mps 723 mmHg 92%
05:00 +16°C° 0.5 mm 2 mps 723 mmHg 93%
06:00 +17°C° 0.5 mm 2 mps 723 mmHg 93%
07:00 +17°C° 0.8 mm 2 mps 723 mmHg 92%
08:00 +19°C° 0.8 mm 1 mps 723 mmHg 91%
09:00 +19°C° 0.8 mm 1 mps 723 mmHg 91%
10:00 +20°C° 0.6 mm 1 mps 724 mmHg 88%
11:00 +20°C° 0.6 mm 1 mps 724 mmHg 85%
12:00 +20°C° 0.6 mm 1 mps 724 mmHg 82%
13:00 +20°C° 0.4 mm 1 mps 724 mmHg 83%
14:00 +20°C° 0.4 mm 1 mps 724 mmHg 85%
15:00 +19°C° 0.4 mm 1 mps 724 mmHg 87%
16:00 +17°C° 0.1 mm 0 mps 724 mmHg 88%
17:00 +17°C° 0.1 mm 0 mps 724 mmHg 89%
18:00 +16°C° 0.1 mm 0 mps 725 mmHg 91%
19:00 +16°C° 0.1 mm 0 mps 725 mmHg 92%
20:00 +15°C° 0.1 mm 0 mps 725 mmHg 93%
21:00 +16°C° 0.1 mm 1 mps 725 mmHg 94%
22:00 +16°C° 0.1 mm 1 mps 725 mmHg 94%
23:00 +16°C° 0.1 mm 1 mps 725 mmHg 95%

Tomorrow, 16 July, Thursday

Time Temperature Precipitation Wind Pressure Humidity
00:00 +15°C° 0.1 mm 1 mps 725 mmHg 95%
01:00 +15°C° 0.1 mm 1 mps 725 mmHg 95%
02:00 +15°C° 0.1 mm 1 mps 725 mmHg 95%
03:00 +15°C° 0.1 mm 1 mps 725 mmHg 96%
04:00 +15°C° 0.1 mm 1 mps 725 mmHg 95%
05:00 +15°C° 0.1 mm 1 mps 726 mmHg 94%
06:00 +16°C° 0.1 mm 1 mps 726 mmHg 93%
07:00 +18°C° 0 mm 1 mps 726 mmHg 87%
08:00 +19°C° 0 mm 1 mps 726 mmHg 81%
09:00 +20°C° 0 mm 1 mps 727 mmHg 75%
10:00 +21°C° 0.1 mm 1 mps 727 mmHg 74%
11:00 +21°C° 0.1 mm 1 mps 727 mmHg 73%
12:00 +22°C° 0.1 mm 1 mps 726 mmHg 72%
13:00 +21°C° 0.2 mm 2 mps 726 mmHg 72%
14:00 +21°C° 0.2 mm 2 mps 726 mmHg 73%
15:00 +21°C° 0.2 mm 2 mps 726 mmHg 73%
16:00 +20°C° 0.1 mm 2 mps 726 mmHg 77%
17:00 +19°C° 0.1 mm 2 mps 726 mmHg 81%
18:00 +19°C° 0.1 mm 2 mps 726 mmHg 85%
19:00 +17°C° 0 mm 2 mps 726 mmHg 88%
20:00 +16°C° 0 mm 2 mps 726 mmHg 91%
21:00 +15°C° 0 mm 1 mps 726 mmHg 94%
22:00 +15°C° 0 mm 1 mps 726 mmHg 94%
23:00 +15°C° 0 mm 1 mps 726 mmHg 93%

Day after tomorrow, 17 July, Friday

Time Temperature Precipitation Wind Pressure Humidity
00:00 +15°C° 0 mm 1 mps 726 mmHg 92%
01:00 +15°C° 0 mm 1 mps 726 mmHg 92%
02:00 +15°C° 0 mm 1 mps 726 mmHg 92%
03:00 +14°C° 0 mm 1 mps 725 mmHg 92%
04:00 +15°C° 0 mm 1 mps 725 mmHg 92%
05:00 +16°C° 0 mm 1 mps 725 mmHg 92%
06:00 +18°C° 0 mm 1 mps 725 mmHg 91%
07:00 +18°C° 0 mm 2 mps 725 mmHg 86%
08:00 +19°C° 0 mm 2 mps 725 mmHg 81%
09:00 +20°C° 0 mm 3 mps 725 mmHg 76%
10:00 +21°C° 0.1 mm 3 mps 725 mmHg 72%
11:00 +22°C° 0.1 mm 3 mps 725 mmHg 69%
12:00 +22°C° 0.1 mm 3 mps 725 mmHg 66%
13:00 +22°C° 0.1 mm 3 mps 725 mmHg 67%
14:00 +22°C° 0.1 mm 3 mps 725 mmHg 68%
15:00 +22°C° 0.1 mm 3 mps 725 mmHg 69%
16:00 +22°C° 0.1 mm 3 mps 725 mmHg 74%
17:00 +21°C° 0.1 mm 3 mps 725 mmHg 79%
18:00 +20°C° 0.1 mm 2 mps 725 mmHg 84%
19:00 +19°C° 0 mm 2 mps 725 mmHg 87%
20:00 +17°C° 0 mm 2 mps 726 mmHg 91%
21:00 +16°C° 0 mm 2 mps 726 mmHg 95%
22:00 +16°C° 0 mm 2 mps 726 mmHg 94%
23:00 +15°C° 0 mm 2 mps 726 mmHg 94%

18 July, Saturday

Time Temperature Precipitation Wind Pressure Humidity
00:00 +15°C° 0 mm 2 mps 726 mmHg 93%
01:00 +15°C° 0 mm 2 mps 726 mmHg 94%
02:00 +15°C° 0 mm 2 mps 725 mmHg 94%
03:00 +15°C° 0 mm 2 mps 725 mmHg 94%
04:00 +15°C° 0 mm 2 mps 725 mmHg 93%
05:00 +16°C° 0 mm 2 mps 725 mmHg 91%
06:00 +17°C° 0 mm 2 mps 726 mmHg 89%
07:00 +19°C° 0 mm 2 mps 725 mmHg 81%
08:00 +20°C° 0 mm 3 mps 725 mmHg 73%
09:00 +22°C° 0 mm 3 mps 725 mmHg 65%
10:00 +24°C° 0 mm 3 mps 725 mmHg 61%
11:00 +25°C° 0 mm 3 mps 725 mmHg 58%
12:00 +26°C° 0 mm 4 mps 725 mmHg 54%
13:00 +26°C° 0 mm 3 mps 725 mmHg 55%
14:00 +26°C° 0 mm 3 mps 725 mmHg 56%
15:00 +25°C° 0 mm 3 mps 725 mmHg 58%
16:00 +25°C° 0 mm 3 mps 725 mmHg 62%
17:00 +24°C° 0 mm 3 mps 725 mmHg 67%
18:00 +23°C° 0 mm 2 mps 725 mmHg 72%
19:00 +21°C° 0 mm 2 mps 725 mmHg 78%
20:00 +19°C° 0 mm 2 mps 725 mmHg 83%
21:00 +18°C° 0 mm 1 mps 725 mmHg 88%
22:00 +18°C° 0 mm 1 mps 725 mmHg 88%
23:00 +16°C° 0 mm 1 mps 725 mmHg 87%

19 July, Sunday

Time Temperature Precipitation Wind Pressure Humidity
00:00 +16°C° 0 mm 1 mps 725 mmHg 87%
01:00 +16°C° 0 mm 1 mps 725 mmHg 88%
02:00 +15°C° 0 mm 1 mps 725 mmHg 89%
03:00 +15°C° 0 mm 1 mps 724 mmHg 90%
04:00 +16°C° 0 mm 1 mps 725 mmHg 87%
05:00 +16°C° 0 mm 0 mps 725 mmHg 85%
06:00 +17°C° 0 mm 0 mps 725 mmHg 83%
07:00 +21°C° 0 mm 1 mps 725 mmHg 76%
08:00 +23°C° 0 mm 1 mps 725 mmHg 69%
09:00 +25°C° 0 mm 1 mps 725 mmHg 62%
10:00 +26°C° 0 mm 1 mps 725 mmHg 60%
11:00 +27°C° 0 mm 1 mps 725 mmHg 57%
12:00 +27°C° 0 mm 2 mps 725 mmHg 55%
13:00 +27°C° 0 mm 1 mps 725 mmHg 56%
14:00 +27°C° 0 mm 1 mps 725 mmHg 57%
15:00 +27°C° 0 mm 1 mps 725 mmHg 58%
16:00 +26°C° 0.1 mm 1 mps 725 mmHg 64%
17:00 +25°C° 0.1 mm 1 mps 725 mmHg 71%
18:00 +25°C° 0.1 mm 1 mps 725 mmHg 77%
19:00 +23°C° 0 mm 1 mps 725 mmHg 80%
20:00 +21°C° 0 mm 1 mps 725 mmHg 84%
21:00 +19°C° 0 mm 1 mps 725 mmHg 87%
22:00 +19°C° 0 mm 1 mps 725 mmHg 87%
23:00 +19°C° 0 mm 1 mps 725 mmHg 87%

20 July, Monday

Time Temperature Precipitation Wind Pressure Humidity
00:00 +18°C° 0 mm 1 mps 725 mmHg 87%
01:00 +18°C° 0 mm 1 mps 725 mmHg 87%
02:00 +18°C° 0 mm 1 mps 725 mmHg 88%
03:00 +18°C° 0 mm 1 mps 725 mmHg 88%
04:00 +17°C° 0 mm 0 mps 726 mmHg 86%
05:00 +18°C° 0 mm 0 mps 726 mmHg 83%
06:00 +19°C° 0 mm 0 mps 726 mmHg 80%
07:00 +21°C° 0 mm 0 mps 726 mmHg 73%
08:00 +25°C° 0 mm 1 mps 726 mmHg 65%
09:00 +26°C° 0 mm 1 mps 726 mmHg 57%
10:00 +27°C° 0 mm 1 mps 726 mmHg 53%
11:00 +28°C° 0 mm 1 mps 726 mmHg 49%
12:00 +29°C° 0 mm 1 mps 726 mmHg 44%
13:00 +29°C° 0 mm 1 mps 726 mmHg 44%
14:00 +29°C° 0 mm 1 mps 726 mmHg 45%
15:00 +29°C° 0 mm 1 mps 726 mmHg 45%
16:00 +27°C° 0 mm 1 mps 726 mmHg 53%
17:00 +26°C° 0 mm 2 mps 726 mmHg 62%
18:00 +25°C° 0 mm 2 mps 726 mmHg 71%
19:00 +23°C° 0 mm 2 mps 726 mmHg 76%
20:00 +20°C° 0 mm 2 mps 727 mmHg 81%
21:00 +18°C° 0 mm 2 mps 727 mmHg 86%
22:00 +18°C° 0 mm 2 mps 727 mmHg 87%
23:00 +18°C° 0 mm 1 mps 727 mmHg 87%
Show more